Weather Roundup
Issued by NWS Chicago, IL

Home | Current Version | Previous Version | Graphics & Text | Print | Product List | Glossary On
Versions: 1 2 3 4 5 6 7 8 9 10 11 12 13 14 15 16 17 18 19 20 21 22 23 24 25 26 27 28 29 30 31 32 33 34 35 36 37 38 39 40 41 42 43 44 45 46 47 48 49 50
000
NZUS59 KLOT 030608
HRRLOT

CHICAGO AREA WEATHER ROUNDUP
NATIONAL WEATHER SERVICE CHICAGO/ROMEOVILLE IL
100 AM CDT SUN MAY 03 2015

NOTE: "FAIR" INDICATES FEW OR NO CLOUDS BELOW 12,000 FEET WITH NO
SIGNIFICANT WEATHER AND/OR OBSTRUCTIONS TO VISIBILITY.

* THESE STATIONS ARE NOT UNDER NWS QUALITY CONTROL. THEY ALSO MAY NOT
  REPORT WEATHER SUCH AS PRECIPITATION OR FOG.

ILZ005-006-012>014-019>023-030700-
NORTHEAST ILLINOIS

CITY           SKY/WX    TMP DP  RH WIND       PRES   REMARKS
OHARE          MOCLDY    61  39  44 SW6       29.97R
6HR MIN TEMP:  58; 6HR MAX TEMP:  74;

MIDWAY         MOCLDY    63  40  42 S8        29.98R
6HR MIN TEMP:  63; 6HR MAX TEMP:  76;

AURORA           N/A     55  40  56 S5        29.98R
6HR MIN TEMP:  54; 6HR MAX TEMP:  72;

LANSING*       PTCLDY    56  38  50 SW6       30.00R
JOLIET*        MOCLDY    54  45  69 CALM      29.99R
WAUKEGAN       PTCLDY    56  40  55 VRB5      29.96R
6HR MIN TEMP:  51; 6HR MAX TEMP:  61;

DUPAGE AIRPORT PTCLDY    54  42  64 SE5       29.97R
6HR MIN TEMP:  52; 6HR MAX TEMP:  72;

WHEELING       PTCLDY    57  39  51 CALM      29.98R
6HR MIN TEMP:  55; 6HR MAX TEMP:  74;

KANKAKEE*      CLOUDY    57  42  58 CALM      30.01S
MORRIS*        MOCLDY    59  40  50 S5        29.95S
LEWIS AIRPORT* PTCLDY    58  41  53 S7        29.99R
NORTHERLY IS     N/A     65  36  34 S9          N/A
$$

WIZ051-052-058>065-066-070>072-030700-
SOUTHEAST WISCONSIN

CITY           SKY/WX    TMP DP  RH WIND       PRES   REMARKS
MILWAUKEE      PTCLDY    59  39  47 SW7       29.94S
6HR MIN TEMP:  58; 6HR MAX TEMP:  67;

KENOSHA*       MOCLDY    59  41  51 SW5       29.95S
RACINE*        PTCLDY    61  39  44 SW8       29.96S
BURLINGTON     PTCLDY    50  40  68 SW5       29.95S
WAUKESHA       PTCLDY    59  37  44 S6        29.95S
WEST BEND      CLEAR     57  39  51 S3        29.93F
$$

INZ001>003-010>013-019-020-030700-
NORTHWEST INDIANA

CITY           SKY/WX    TMP DP  RH WIND       PRES   REMARKS
GARY*          PTCLDY    63  32  31 S5        30.00R
6HR MIN TEMP:  61; 6HR MAX TEMP:  76;

MICHIGAN CITY* NOT AVBL
RENSSELAER*    NOT AVBL
VALPARAISO     PTCLDY    57  39  51 S6        30.01S
$$

LMZ740>746-030700-
SOUTHERN LAKE MICHIGAN

STATION/POSITION TIME  SKY/WX   TEMP WIND        PRES    VSBY
                                AIR  DIR/SP/G
                 (UTC)          (F)  (DEG/KT/KT) (MB)    (MI)
HARRISON CRIB    0500            67  200/ 14/ 15   N/A
BURNHAM HARBOR   0600            64  190/  7/ 11   N/A
CALUMET HARBOR   0500            64  170/  5/  6   N/A
BURNS HARBOR     0500            63  180/  9/ 12 1015.9S
MICHIGAN CITY    0500            65  170/ 12/ 15   N/A
$$

ABBREVIATIONS USED IN REMARKS
   TC - TEMPERATURE IN CELSIUS
  WCI - WIND CHILL INDEX
   HX - HEAT INDEX
  VSB - VISIBILITY
$$



USA.gov is the U.S. government's official web portal to all federal, state and local government web resources and services.